Location: Caltech
(34.1382°N, 118.1253°W)
Time: 06:06:18
(UTC-07:00)

Cosmos 2219 Rocket - Visible Passes

Search period start: 30 August 2016 00:00
Search period end: 09 September 2016 00:00
Orbit: 828 x 847 km, 71.0° (Epoch: 30 August)

Date Brightness Start Highest point End Pass type
(mag) Time Alt. Az. Time Alt. Az. Time Alt. Az.
06 Sep 5.0 23:30:25 11° N 23:30:25 11° N 23:30:37 10° N visible
07 Sep 4.9 23:13:49 12° N 23:13:49 12° N 23:14:25 10° N visible
08 Sep 4.7 22:57:03 15° N 22:57:03 15° N 22:58:11 10° N visible
